PIESAT-2 10

Last updated on Thu Jan 16 2025 00:02:04 GMT+0000 (Coordinated Universal Time)

1 62334U 24241B 25015.58895640 .00014768 00000+0 84332-3 0 9997 2 62334 97.4937 325.1959 0009608 147.3199 212.8629 15.12783793 4505
UTC large
Height (km)
Speed (km/s)
/
Latitude / Longitude
Inclination (degrees)
Orbital Period (minutes)
Azimuth
Elevation
Range (km)
Doppler Factor

Next 0 passes for location: London (51.5072 / 0.1276)

Sorry there are no passes over London.